Location: Lecco
(45.8566°N, 9.3977°E)
Time: 13:35:45
(UTC+02:00)

Envisat - Visible Passes

Search period start: 14 October 2019 00:00
Search period end: 24 October 2019 00:00
Orbit: 764 x 766 km, 98.1° (Epoch: 14 October)

Date Brightness Start Highest point End Pass type
(mag) Time Alt. Az. Time Alt. Az. Time Alt. Az.
14 Oct 6.4 06:59:45 10° ENE 07:02:21 14° E 07:04:57 10° ESE visible
14 Oct 4.1 19:54:00 10° S 19:58:53 48° W 20:03:49 10° NNW visible
15 Oct 3.0 19:16:59 10° SSE 19:22:04 82° ENE 19:27:10 10° NNW visible
15 Oct 6.1 20:59:17 10° WSW 21:01:43 13° W 21:04:10 10° WNW visible
16 Oct 5.1 20:20:12 10° SSW 20:24:33 28° W 20:28:56 10° NW visible
17 Oct 6.7 06:49:41 10° ENE 06:50:56 11° E 06:52:11 10° E visible
17 Oct 3.6 19:42:35 10° S 19:47:35 60° W 19:52:38 10° NNW visible
18 Oct 3.0 19:05:48 10° SSE 19:10:49 66° ENE 19:15:53 10° N visible
18 Oct 5.9 20:47:04 10° SW 20:50:19 17° W 20:53:35 10° NW visible
19 Oct 4.7 20:08:35 10° SSW 20:13:13 35° W 20:17:52 10° NNW visible
20 Oct 3.2 19:31:14 10° S 19:36:18 75° WSW 19:41:25 10° NNW visible
21 Oct 3.1 18:54:41 10° SE 18:59:36 53° ENE 19:04:33 10° N visible
21 Oct 5.5 20:35:07 10° SW 20:38:56 21° W 20:42:46 10° NW visible
22 Oct 6.2 07:02:27 10° NE 07:05:23 15° E 07:08:18 10° SE visible
22 Oct 4.2 19:57:03 10° S 20:01:53 44° W 20:06:45 10° NNW visible
23 Oct 3.0 19:19:58 10° SSE 19:25:02 88° E 19:30:09 10° NNW visible
23 Oct 6.1 21:02:45 10° WSW 21:04:46 12° W 21:06:46 10° WNW visible
